Scottsbluff, NE

2:39 PM MDT on September 18, 2019 (GMT -0600)
Heilig

Weather History for KBFF - July, 2019

Change the Weather History Date:

Monday, July 22, 2019

  Actual Average Record
Temperature  
Mean Temperature 72 °F -  
Max Temperature 82 °F 87 °F 103 °F (1964)
Min Temperature 62 °F 58 °F 43 °F (1897)
Cooling Degree Days 7    
Growing Degree Days 22 (Base 50)    
Moisture  
Dew Point 60 °F    
Average Humidity 74    
Maximum Humidity 93    
Minimum Humidity 44    
Precipitation  
Precipitation 0.00 in - - ()
Sea Level Pressure  
Sea Level Pressure 30.24 in    
Wind  
Wind Speed 11 mph (ESE)    
Max Wind Speed 17 mph    
Max Gust Speed 22 mph    
Visibility 10 miles    
Events      
Averages and records for this station are not official NWS values.
T = Trace of Precipitation, MM = Missing Value Source: NWS Daily Summary

Daily Weather History Graph

Daily Weather History Graph

Search for Another Location

Airport or City:

Astronomy

Jul. 22, 2019 Rise Set
Actual Time 5:38 AM MDT 8:22 PM MDT
Civil Twilight 5:05 AM MDT 8:55 PM MDT
Nautical Twilight 4:24 AM MDT 9:35 PM MDT
Astronomical Twilight 3:38 AM MDT 10:22 PM MDT
Moon 11:39 PM MDT (7/22) 11:01 AM MDT (7/22)
Length of Visible Light 15h 49m
Length of Day
14h 44m
Waning Gibbous, 72% of the Moon is Illuminated
Jul 22
Waning Gibbous
Jul 24
Last Quarter
Jul 31
New
Aug 7
First Quarter
Aug 15
Full

Hourly Weather History & Observations

Time (MDT) Temp. Heat Index Dew Point Humidity Pressure Visibility Wind Dir Wind Speed Gust Speed Precip Events Conditions
12:53 AM 63.0 °F - 59.0 °F 87% 30.25 in 10.0 mi East 9.2 mph - N/A   Overcast
1:53 AM 63.0 °F - 59.0 °F 87% 30.25 in 10.0 mi ESE 10.4 mph - N/A   Overcast
2:53 AM 63.0 °F - 59.0 °F 87% 30.23 in 10.0 mi ESE 8.1 mph - N/A   Overcast
3:53 AM 63.0 °F - 59.0 °F 87% 30.22 in 10.0 mi ESE 11.5 mph - N/A   Overcast
4:53 AM 62.1 °F - 59.0 °F 90% 30.24 in 10.0 mi SE 8.1 mph - N/A   Overcast
5:53 AM 62.1 °F - 60.1 °F 93% 30.24 in 10.0 mi ESE 10.4 mph - N/A   Overcast
6:53 AM 62.1 °F - 59.0 °F 90% 30.25 in 10.0 mi ESE 11.5 mph - N/A   Overcast
7:53 AM 63.0 °F - 59.0 °F 87% 30.26 in 10.0 mi ESE 10.4 mph - N/A   Overcast
8:14 AM 63.0 °F - 60.1 °F 90% 30.37 in 10.0 mi ESE 11.5 mph - N/A   Overcast
8:26 AM 63.0 °F - 59.0 °F 87% 30.38 in 10.0 mi ESE 12.7 mph - N/A   Overcast
8:35 AM 64.0 °F - 60.1 °F 87% 30.38 in 10.0 mi ESE 10.4 mph - N/A   Overcast
8:53 AM 64.0 °F - 60.1 °F 87% 30.28 in 10.0 mi ESE 11.5 mph - N/A   Overcast
9:53 AM 66.0 °F - 60.1 °F 81% 30.27 in 10.0 mi ESE 13.8 mph - N/A   Overcast
10:53 AM 69.1 °F - 61.0 °F 75% 30.26 in 10.0 mi ESE 11.5 mph - N/A   Overcast
11:12 AM 70.0 °F - 61.0 °F 73% 30.37 in 10.0 mi ESE 16.1 mph - N/A   Overcast
11:53 AM 72.0 °F - 62.1 °F 71% 30.26 in 10.0 mi ESE 13.8 mph - N/A   Overcast
12:40 PM 73.9 °F - 62.1 °F 66% 30.35 in 10.0 mi SE 10.4 mph - N/A   Overcast
12:53 PM 75.0 °F - 62.1 °F 64% 30.23 in 10.0 mi ESE 8.1 mph - N/A   Mostly Cloudy
1:53 PM 79.0 °F - 63.0 °F 58% 30.20 in 10.0 mi East 11.5 mph - N/A   Scattered Clouds
2:53 PM 81.0 °F 82.2 °F 63.0 °F 54% 30.17 in 10.0 mi East 15.0 mph 21.9 mph N/A   Scattered Clouds
3:53 PM 82.0 °F 83.0 °F 62.1 °F 51% 30.16 in 10.0 mi ESE 15.0 mph - N/A   Clear
4:53 PM 80.1 °F 81.2 °F 62.1 °F 54% 30.15 in 10.0 mi ESE 16.1 mph - N/A   Clear
5:53 PM 79.0 °F - 61.0 °F 54% 30.14 in 10.0 mi ESE 17.3 mph - N/A   Clear
6:53 PM 78.1 °F - 61.0 °F 56% 30.14 in 10.0 mi ESE 17.3 mph - N/A   Clear
7:53 PM 73.9 °F - 61.0 °F 64% 30.17 in 10.0 mi ESE 13.8 mph - N/A   Clear
8:53 PM 71.1 °F - 60.1 °F 68% 30.20 in 10.0 mi ESE 11.5 mph - N/A   Clear
9:53 PM 68.0 °F - 60.1 °F 76% 30.22 in 10.0 mi ESE 10.4 mph - N/A   Partly Cloudy
10:53 PM 66.9 °F - 60.1 °F 79% 30.21 in 10.0 mi ESE 10.4 mph - N/A   Mostly Cloudy
11:53 PM 66.9 °F - 59.0 °F 76% 30.20 in 10.0 mi ESE 10.4 mph - N/A   Partly Cloudy